User: anonymous   Login
Location: Vancouver
(49.2500°N, 123.1330°W)
Time: 23:15:14
(UTC-07:00)
Language:

Vanguard 2 Rocket - Orbit

View from above orbital plane
View from above orbital plane
View from above satellite
View from above satellite

Ground track
Ground track

The orbit data is extracted from the following two-line orbital elements,

1 00012U 59001B   14302.57736156  .00000364  00000-0  22306-3 0  9447
2 00012 032.9013 348.0453 1670549 061.0740 314.7107 11.43425681286824
Epoch (UTC): 29 October 2014 13:51:24
Eccentricity: 0.1670549
inclination: 32.9013°
perigee height: 554 km
apogee height: 3335 km
right ascension of ascending node: 348.0453°
argument of perigee: 61.0740°
revolutions per day: 11.43425681
mean anomaly at epoch: 314.7107°
orbit number at epoch: 28682

The dashed part of the orbit path shows where the satellite is in the earth's shadow,  

DLR